Meteo Giornale » Osservazioni meteo Gran Bretagna » Londra City AP

ore: 11:20 - Osservazioni Meteo Londra City AP
Lat. 51° 30' N Lon. 0° 30' W Alt. 5 metri s.l.m.

molto_nuvoloso Europe/London

15 °C

Molto Nuvoloso

Temp. 24 Ore

10 °C

16 °C

Sud

13 Km/h

Dew point 8 °C

Umidità 62 %

Visibilità  10 Km

Il sole sorge alle ore 07:28

Il sole tramonta alle ore 18:06

Data e Ora Cielo e Fenomeni T °C DP °C Um. % Pres. hPa Vis. km Vento km/h
Oggi h: 11:20 molto_nuvoloso Molto Nuvoloso 15 8 62 1007 10 S 13
Oggi h: 10:50 sereno Sereno 14 8 67 1007 10 S 14.8
Oggi h: 10:20 sereno Sereno 14 9 71 1007 10 S 11.1
Oggi h: 09:50 sereno Sereno 13 8 71 1007 10 S/SE 11.1
Oggi h: 09:20 sereno Sereno 12 8 76 1007 10 S 9.3
Oggi h: 08:50 sereno Sereno 12 8 76 1007 10 S 11.1
Oggi h: 08:20 sereno Sereno 12 8 76 1007 10 N 7.4
Oggi h: 07:50 sereno Sereno 11 8 81 1007 10 N 5.5
Oggi h: 07:20 sereno Sereno 12 8 76 1007 10 N 9.3
Oggi h: 06:50 sereno Sereno 11 8 81 1007 10 N 5.5
Oggi h: 06:20 sereno Sereno 10 8 87 1007 10 N 5.5
Oggi h: 05:50 sereno Sereno 11 8 81 1007 10 N 5.5
Oggi h: 04:50 sereno Sereno 11 9 87 1007 10 SO 7.4
Oggi h: 04:20 sereno Sereno 11 8 81 1007 10 SO 7.4
Oggi h: 03:50 sereno Sereno 11 9 87 1007 10 SO 7.4
Oggi h: 03:20 coperto_pioggia Pioggia Debole 11 8 81 1007 10 SO 7.4
Oggi h: 02:50 coperto_pioggia Pioggia Debole 12 8 76 1007 10 SO 11.1
Oggi h: 02:20 sereno Sereno 12 8 76 1007 10 O/SO 9.3
Oggi h: 01:50 sereno Sereno 12 8 76 1007 10 O/SO 11.1
Oggi h: 01:20 sereno Sereno 12 8 76 1007 10 O/SO 9.3
Oggi h: 00:50 sereno Sereno 12 8 76 1006 10 O/SO 11.1
Oggi h: 00:20 sereno Sereno 12 8 76 1006 10 S/SO 7.4
Ieri h: 23:50 sereno Sereno 12 8 76 1006 10 SO 11.1
Ieri h: 23:20 sereno Sereno 11 8 81 1006 10 SO 11.1
Ieri h: 22:50 sereno Sereno 11 8 81 1006 10 SO 7.4
Ieri h: 22:20 sereno Sereno 12 8 76 1006 10 SO 9.3
Ieri h: 21:50 sereno Sereno 13 8 71 1005 10 SO 9.3
Ieri h: 21:20 sereno Sereno 13 7 66 1005 10 O/SO 7.4
Ieri h: 20:50 sereno Sereno 13 7 66 1005 10 O/SO 11.1
Ieri h: 19:50 sereno Sereno 14 7 62 1004 10 O/SO 9.3
Ieri h: 19:20 sereno Sereno 14 7 62 1004 10 O 9.3
Ieri h: 18:50 sereno Sereno 14 7 62 1004 10 O 13
Ieri h: 18:20 poco_nuvoloso Poco Nuvoloso 15 7 58 1004 10 O/NO 13
Ieri h: 17:50 nuvoloso Nuvoloso 15 7 58 1003 10 O 13
Ieri h: 16:50 sereno Sereno 15 7 58 1003 10 O 18.5
Ieri h: 16:20 sereno Sereno 15 7 58 1003 10 O 20.3
Ieri h: 15:50 poco_nuvoloso Poco Nuvoloso 16 8 58 1003 10 O 20.3
Ieri h: 15:20 nuvoloso Nuvoloso 16 8 58 1003 10 O/SO 16.7
Ieri h: 14:50 sereno Sereno 16 8 58 1003 10 O/SO 20.3
Ieri h: 14:20 molto_nuvoloso Molto Nuvoloso 15 9 67 1003 10 O/SO 18.5
Ieri h: 13:50 molto_nuvoloso Molto Nuvoloso 16 10 67 1002 10 O/SO 20.3
Ieri h: 13:20 molto_nuvoloso Molto Nuvoloso 15 10 72 1002 10 O/SO 22.2
Ieri h: 12:50 molto_nuvoloso Molto Nuvoloso 15 11 76 1002 10 O 20.3
Ieri h: 12:20 molto_nuvoloso Molto Nuvoloso 15 11 76 1002 10 O/SO 18.5
Ieri h: 11:50 coperto Coperto 15 12 82 1002 10 O/SO 16.7